Regional Weather Roundup
Issued by NWS

Home | Current Version | Previous Version | Graphics & Text | Print | Product List | Glossary Off
Versions: 1 2 3 4 5 6 7 8 9 10 11 12 13 14 15 16 17 18 19 20 21 22 23 24 25 26 27 28 29 30 31 32 33 34 35 36 37 38 39 40 41 42 43 44 45 46 47 48 49 50

000
ASUS43 KLSX 211657
RWRMO

WEATHER SUMMARY FOR MISSOURI
NATIONAL WEATHER SERVICE SPRINGFIELD MO
1100 AM CST TUE NOV 21 2017

NOTE: "FAIR" INDICATES FEW OR NO CLOUDS BELOW 12,000 FEET WITH NO
       SIGNIFICANT WEATHER AND/OR OBSTRUCTIONS TO VISIBILITY.
       CURRENT SKY AND/OR WEATHER CONDITIONS ARE NOT AVAILABLE FOR
       CHILLICOTHE AND FARMINGTON.

MOZ001>031-035>038-043-044-053-054-211800-
...NORTHERN AND WESTERN MISSOURI...

CITY           SKY/WX    TMP DP  RH WIND       PRES   REMARKS
KANSAS CTY INT PTSUNNY   50  29  44 N22G30    30.06R
LEE`S SUMMIT   PTSUNNY   49  31  49 N22G31    30.04R
ST JOSEPH      CLOUDY    48  21  34 N26G35    30.11R
CHILLICOTHE      N/A     47  25  42 N10G24    30.06R

$$
MOZ066>068-077>081-088>096-101>105-211800-
...SOUTHWEST MISSOURI...

CITY           SKY/WX    TMP DP  RH WIND       PRES   REMARKS
SPRINGFIELD    CLOUDY    53  37  54 NW10      29.99R
JOPLIN         PTSUNNY   51  39  63 NW6       30.02R
BRANSON        PTSUNNY   55  37  50 NE7       29.98R

$$
MOZ032>034-039>042-045>050-055>058-069>072-211800-
...CENTRAL MISSOURI...

CITY           SKY/WX    TMP DP  RH WIND       PRES   REMARKS
COLUMBIA       NOT AVBL
JEFFERSON CITY PTSUNNY   50  36  58 W9        30.00R
ROLLA          MOSUNNY   51  35  54 W10       29.98R
SEDALIA        PTSUNNY   51  31  46 N14G23    30.01R
WARRENSBURG    PTSUNNY   52  30  43 N15G22    30.01S

$$
MOZ051-052-059>065-211800-
...EAST CENTRAL MISSOURI...

CITY           SKY/WX    TMP DP  RH WIND       PRES   REMARKS
ST LOUIS INTL  PTSUNNY   54  34  46 W16G23    29.95R

$$
MOZ072>076-082>087-097>100-106>115-211800-
...SOUTH CENTRAL AND SOUTHEAST MISSOURI...

CITY           SKY/WX    TMP DP  RH WIND       PRES   REMARKS
CAPE GIRARDEAU MOSUNNY   50  35  56 SW10      30.00S
POPLAR BLUFF   PTSUNNY   52  35  52 SW7       30.00S
WEST PLAINS    PTSUNNY   54  34  46 VRB6      29.98R

$$


USA.gov is the U.S. government's official web portal to all federal, state and local government web resources and services.